• Join FlightAware (Why Join?)
  • Login
  • US Flag GB Flag 
03:28 EST


 

Airport Tracker/Info


-or-


 

Live Flight TrackerFlight Track Log ✈ TCF7304 ✈ 15-May-2013 ✈ KGRB - KDTW

Flight Track Log - Related Links

Times and Time Zones

All times are in EDT time to prevent confusion due to time zone crossing. See the TCF7304 flight status page for this flight to view local times or setup timezone preferences in your user account.

Time Position Orientation Groundspeed Altitude Reporting Facility
EDT Latitude Longitude Course Direction KTS MPH feet Rate Location/Type
17:52 44.4300 -88.1942 130° Southeast 201 231 4,600  Level Minneapolis Center
17:53 44.4011 -88.1078 115° Southeast 249 287 7,300 2,460 Climbing Minneapolis Center
17:54 44.3312 -87.7623 125° Southeast  Level FlightAware Approximate
17:55 44.2661 -87.6323 129° Southeast  Level FlightAware Approximate
17:55 44.3781 -88.0033 107° East 272 313 9,800  Level Minneapolis Center
17:56 44.1957 -87.5081 125° Southeast  Level FlightAware Approximate
17:56 44.3511 -87.8819 107° East 314 361 11,900  Level Minneapolis Center
17:57 44.1337 -87.3758 119° Southeast  Level FlightAware Approximate
17:57 44.3100 -87.7236 110° East 371 427 14,400  Level Minneapolis Center
17:58 44.0772 -87.2691 130° Southeast  Level FlightAware Approximate
17:58 44.2483 -87.6000 125° Southeast 384 442 16,500  Level Minneapolis Center
17:59 44.1817 -87.4722 126° Southeast 401 461 18,800 2,160 Climbing Minneapolis Center
18:00 44.1125 -87.3411 126° Southeast 414 476 21,000 1,980 Climbing Minneapolis Center
18:01 44.0389 -87.2006 126° Southeast 416 479 23,000 960 Climbing Minneapolis Center
18:02 43.9697 -87.0714 127° Southeast 418 481 23,000  Level Minneapolis Center
18:03 43.9017 -86.9422 126° Southeast 415 478 23,000  Level Minneapolis Center
18:04 43.8328 -86.8136 127° Southeast 415 478 23,000  Level Minneapolis Center
18:05 43.7631 -86.6853 127° Southeast 418 481 23,000  Level Minneapolis Center
18:06 43.6944 -86.5547 126° Southeast 419 482 23,000  Level Minneapolis Center
18:07 43.6106 -86.4006 127° Southeast 418 481 23,000  Level Minneapolis Center
18:08 43.5414 -86.2717 126° Southeast 419 482 23,000  Level Chicago Center
18:09 43.4714 -86.1414 126° Southeast 420 483 23,000  Level Chicago Center
18:10 43.3872 -85.9811 126° Southeast 431 496 23,000  Level Chicago Center
18:11 43.3544 -85.8181 105° East 438 504 23,000  Level Chicago Center
18:12 43.3253 -85.6558 104° East 435 501 23,000  Level Chicago Center
18:13 43.2969 -85.4961 104° East 431 496 23,000  Level Chicago Center
18:14 43.2725 -85.3569 104° East 442 509 23,000  Level Cleveland Center
18:15 43.2411 -85.2006 105° East 436 502 23,000  Level Cleveland Center
18:16 43.2139 -85.0447 103° East 430 495 23,000 -120 Level Cleveland Center
18:17 43.1844 -84.8858 104° East 424 488 22,800 -720 Descending Cleveland Center
18:18 43.1547 -84.7300 105° East 424 488 21,600 -1,260 Descending Cleveland Center
18:19 43.1247 -84.5800 105° East 415 478 20,300 -1,320 Descending Cleveland Center
18:19 43.1189 -84.5269 99° East 417 480 19,800 -1,380 Descending Chicago Center
18:20 43.0903 -84.3767 105° East 410 472 18,400 -1,320 Descending Chicago Center
18:21 43.0697 -84.2922 108° East 409 471 17,700 -1,260 Descending Cleveland Center
18:22 43.0408 -84.1483 105° East 403 464 16,500 -1,500 Descending Cleveland Center
18:23 43.0286 -84.0653 101° East 393 452 15,600 -1,500 Descending Cleveland Center
18:23 43.0139 -84.0078 109° East 392 451 15,000 -1,440 Descending Cleveland Center
18:24 42.9708 -83.8350 109° East 358 412 13,100 -1,560 Descending Cleveland Center
18:25 42.8994 -83.7747 148° Southeast 325 374 11,800 -1,200 Descending Cleveland Center
18:26 42.8339 -83.7344 156° South 319 367 11,000 -540 Descending Cleveland Center
18:27 42.7556 -83.7050 165° South 308 354 10,800 -720 Descending Cleveland Center
18:28 42.6625 -83.6722 165° South 271 312 9,500 -1,080 Descending Cleveland Center
18:29 42.6175 -83.6475 158° South 270 311 8,700 -1,080 Descending Cleveland Center
18:30 42.5789 -83.5300 114° Southeast 250 288 7,400 -1,140 Descending Cleveland Center
18:31 42.5594 -83.4725 115° Southeast 239 275 6,500 -840 Descending Cleveland Center
18:32 42.5364 -83.3925 111° Southeast 233 268 6,000 -540 Descending Cleveland Center
18:33 42.4842 -83.3142 132° Southeast 215 247 5,400 -840 Descending Cleveland Center
18:34 42.4375 -83.2589 139° Southeast 216 249 4,200 -720 Descending Cleveland Center
18:35 42.3853 -83.2539 176° South 178 205 4,000 -480 Descending Cleveland Center
18:36 42.3389 -83.2856 207° Southwest 182 209 3,300 -720 Descending Cleveland Center